Total_Precipitation_Accumulation
0.11 0.30 0.58 0.95 1.72 1.87 1.26 0.74 0.58 0.46 0.45 0.42 0.41 0.42 0.55 0.83 1.25 1.83 1.28 0.82 0.82 1.00 1.20 1.58 1.81 1.61 1.54 1.46 1.53 1.58 1.49 1.36 1.28 1.29 1.30 1.25 1.17 1.02 0.88 0.81 0.80 0.83 0.79 0.71 0.80 0.84 0.78 0.86 0.97
0.24 0.46 0.70 1.21 1.77 1.37 0.97 0.68 0.56 0.38 0.37 0.40 0.55 0.58 0.51 0.66 0.67 0.83 1.00 0.91 0.74 0.91 1.18 1.29 1.60 1.53 1.48 1.42 1.45 1.42 1.36 1.22 1.18 1.14 1.11 1.08 1.07 0.96 0.79 0.75 0.76 0.77 0.72 0.74 0.85 0.86 0.84 0.84 0.90
0.37 0.54 0.84 1.32 1.20 0.75 0.61 0.49 0.39 0.36 0.42 0.51 0.62 0.66 0.68 0.77 0.70 0.89 1.02 0.82 0.76 0.87 1.13 1.39 1.51 1.37 1.34 1.27 1.24 1.24 1.23 1.18 1.13 1.07 1.06 0.99 0.95 0.90 0.80 0.76 0.75 0.77 0.77 0.75 0.81 0.91 0.92 0.89 0.89
0.45 0.67 0.84 0.94 0.63 0.33 0.26 0.27 0.29 0.40 0.58 0.79 0.83 0.86 0.81 0.73 0.72 0.85 0.96 0.76 0.69 0.69 0.80 1.11 1.26 1.18 1.23 1.18 1.07 1.09 1.16 1.20 1.14 1.06 0.99 0.98 0.98 0.96 0.84 0.75 0.74 0.80 0.83 0.82 0.86 0.99 1.00 0.90 0.90
0.43 0.74 0.99 0.75 0.38 0.27 0.21 0.21 0.31 0.46 0.65 0.81 0.89 1.05 1.14 0.96 0.79 0.84 0.82 0.76 0.65 0.61 0.66 0.87 1.15 1.08 1.08 1.07 1.01 1.01 1.11 1.18 1.06 0.97 0.88 0.92 0.97 0.91 0.82 0.79 0.77 0.77 0.81 0.84 0.91 0.98 0.99 0.98 1.02
0.53 0.82 0.81 0.54 0.29 0.20 0.22 0.25 0.32 0.45 0.63 0.80 1.10 1.29 1.40 1.27 1.12 1.00 0.83 0.92 0.79 0.65 0.62 0.78 1.10 1.11 1.06 1.05 1.02 1.06 1.09 1.02 0.95 0.89 0.84 0.86 0.90 0.87 0.85 0.86 0.87 0.80 0.83 0.89 0.91 0.91 0.90 0.96 1.09
0.47 0.60 0.49 0.33 0.25 0.20 0.21 0.25 0.32 0.48 0.63 0.87 1.19 1.40 1.43 1.44 1.29 1.10 0.98 1.03 1.10 0.95 0.87 0.85 0.95 1.03 1.03 1.14 1.18 1.14 1.07 0.95 0.92 0.91 0.89 0.85 0.82 0.82 0.82 0.92 0.95 0.87 0.88 0.92 0.95 0.94 0.96 1.03 1.14
0.29 0.41 0.32 0.21 0.23 0.23 0.20 0.23 0.35 0.58 0.74 0.96 1.17 1.36 1.57 1.36 1.20 1.25 1.42 1.60 1.72 1.60 1.44 1.20 1.05 1.14 1.03 1.06 1.13 1.13 0.96 0.90 0.91 0.97 0.93 0.93 0.98 0.99 1.05 1.02 0.99 1.00 1.07 1.11 1.17 1.12 1.09 1.21 1.31
0.23 0.37 0.25 0.12 0.13 0.20 0.19 0.23 0.32 0.42 0.62 0.86 1.06 1.16 1.10 1.09 1.26 1.54 1.94 2.07 1.92 1.98 1.81 1.66 1.48 1.26 1.21 1.14 1.04 1.20 1.11 1.04 1.16 1.34 1.31 1.36 1.69 1.60 1.67 1.33 1.25 1.35 1.52 1.57 1.64 1.64 1.56 1.50 1.45
0.20 0.26 0.14 0.05 0.04 0.08 0.14 0.21 0.31 0.44 0.86 1.44 1.44 1.13 0.93 1.13 1.41 1.64 1.99 2.26 1.88 1.93 1.77 1.79 1.80 1.49 1.31 1.26 1.49 1.86 1.65 1.62 1.68 1.93 1.83 2.13 2.24 2.12 1.56 1.58 1.77 1.88 2.21 2.34 2.40 2.47 2.19 1.89 1.77
0.16 0.14 0.08 0.03 0.03 0.03 0.06 0.14 0.24 0.49 0.96 1.65 1.83 1.39 1.21 1.33 1.71 1.73 1.98 2.21 2.15 2.04 1.96 1.77 2.03 1.77 1.66 1.82 1.92 2.08 2.17 2.13 2.11 2.19 2.19 2.44 2.23 1.92 1.82 2.15 2.52 2.70 2.85 3.03 3.08 2.99 2.52 2.46 2.64
0.09 0.07 0.04 0.03 0.02 0.03 0.11 0.19 0.29 0.38 0.80 1.15 1.13 1.04 1.20 1.41 1.77 1.99 2.05 2.29 2.35 2.23 2.18 2.12 2.19 2.14 2.11 2.14 2.09 1.94 1.77 1.82 1.99 2.17 2.14 2.34 2.44 2.45 2.42 2.60 2.72 2.95 3.33 3.71 3.63 3.59 3.31 3.25 3.04
0.07 0.09 0.08 0.05 0.05 0.06 0.12 0.16 0.29 0.45 0.56 0.68 0.65 0.86 1.29 1.56 1.95 2.30 2.66 2.88 2.94 2.88 2.75 2.76 2.87 2.71 2.50 2.45 2.14 1.74 1.64 1.58 1.67 1.79 1.93 1.94 2.28 2.58 2.61 2.47 2.51 2.47 2.70 3.14 3.69 3.61 3.79 3.72 3.34
0.06 0.06 0.08 0.07 0.06 0.07 0.11 0.17 0.32 0.54 0.54 0.64 0.80 1.04 1.43 1.87 2.25 2.51 3.27 3.67 3.91 3.84 3.68 3.48 3.55 3.14 2.81 2.58 2.22 1.96 1.69 1.72 1.69 1.62 1.63 1.85 2.12 2.38 2.35 2.32 2.52 2.57 2.50 2.65 3.09 3.26 3.64 3.62 3.24
0.11 0.13 0.12 0.10 0.07 0.08 0.13 0.33 0.48 0.60 0.80 0.83 1.00 1.20 1.53 2.12 2.60 3.06 3.60 4.35 4.78 4.96 4.57 3.98 3.71 3.41 3.15 2.89 2.43 2.05 1.86 1.63 1.75 1.80 1.74 1.80 1.91 2.08 2.06 2.15 2.17 2.25 2.16 2.23 2.45 2.67 2.94 2.91 2.76
0.14 0.24 0.30 0.16 0.11 0.11 0.18 0.58 0.74 0.63 0.95 1.27 1.20 1.45 1.85 2.37 2.85 3.53 4.21 5.05 5.59 5.76 5.18 4.46 3.75 3.77 3.63 3.34 2.69 2.19 1.93 1.83 1.78 1.75 1.63 1.53 1.61 1.62 1.71 1.74 1.70 1.72 1.58 1.71 2.04 2.13 2.39 2.61 2.67
0.15 0.22 0.29 0.26 0.15 0.14 0.23 0.65 0.82 0.64 0.85 1.15 1.33 1.57 1.99 2.35 2.69 3.34 3.99 4.79 5.39 5.91 5.72 5.10 4.92 4.68 4.00 3.28 2.67 2.27 1.97 1.88 1.75 1.68 1.58 1.49 1.41 1.40 1.54 1.65 1.70 1.43 1.43 1.50 1.39 1.78 2.02 2.28 2.38
0.13 0.15 0.22 0.31 0.22 0.22 0.30 0.50 0.78 0.83 1.03 1.31 1.41 1.52 1.78 1.97 2.30 2.81 3.32 3.76 4.35 4.85 4.75 4.70 4.82 4.38 3.77 3.13 2.66 2.38 2.10 1.80 1.63 1.60 1.60 1.49 1.45 1.46 1.64 1.50 1.48 1.34 1.55 1.72 1.78 2.05 1.98 1.93 2.01
0.09 0.12 0.19 0.26 0.22 0.28 0.41 0.54 0.77 0.93 1.17 1.38 1.41 1.35 1.40 1.62 1.90 2.20 2.57 2.91 3.13 3.29 3.39 3.70 3.93 3.67 3.20 2.79 2.30 2.11 2.06 1.86 1.63 1.49 1.37 1.45 1.41 1.59 1.78 1.55 1.81 1.60 1.58 1.65 1.68 1.82 1.83 1.69 1.65
0.09 0.11 0.19 0.24 0.20 0.25 0.40 0.68 0.86 0.95 0.98 1.10 1.22 1.14 1.18 1.44 1.49 1.58 1.77 2.09 2.18 2.41 2.72 3.09 3.33 3.18 2.65 2.43 2.23 2.10 2.04 1.89 1.83 1.68 1.60 1.42 1.40 1.49 1.44 1.73 1.61 1.62 1.74 1.76 1.82 1.94 1.95 1.75 1.69
0.09 0.10 0.13 0.18 0.18 0.27 0.42 0.94 1.06 0.94 0.85 0.78 0.92 0.98 0.94 1.08 1.21 1.25 1.23 1.39 1.71 2.23 2.42 2.36 2.60 2.79 2.53 2.42 2.34 2.23 2.16 1.96 2.00 1.92 1.78 1.43 1.29 1.32 1.40 1.45 1.49 1.71 1.55 1.82 2.01 1.95 2.03 2.03 1.86
0.08 0.08 0.08 0.10 0.15 0.41 0.52 0.99 1.09 0.95 0.94 0.76 0.73 0.77 0.71 0.66 0.82 0.98 0.97 1.06 1.25 1.58 1.86 2.08 2.32 2.49 2.43 2.32 2.11 1.95 1.77 1.67 1.67 1.70 1.71 1.57 1.45 1.30 1.31 1.33 1.52 1.70 1.53 1.91 1.60 1.69 1.94 2.09 1.92
0.04 0.04 0.06 0.10 0.18 0.38 0.51 0.87 1.07 0.89 1.02 0.79 0.52 0.41 0.37 0.37 0.48 0.66 0.77 0.86 0.89 1.09 1.49 1.92 2.26 2.50 2.39 2.09 1.92 1.92 1.81 1.77 1.69 1.62 1.82 1.71 1.62 1.43 1.24 1.35 1.52 1.60 1.52 1.64 1.69 1.98 1.90 1.86 1.84
0.03 0.05 0.13 0.23 0.38 0.74 0.71 0.74 1.01 0.78 0.59 0.46 0.35 0.27 0.27 0.30 0.35 0.45 0.53 0.65 0.77 0.90 1.16 1.52 1.82 2.07 2.09 1.95 1.86 1.90 1.92 1.88 1.75 1.57 1.57 1.49 1.49 1.45 1.36 1.43 1.54 1.52 1.47 1.57 1.62 1.77 1.77 1.86 1.94
0.03 0.05 0.22 0.46 0.73 0.91 0.58 0.75 1.09 0.66 0.48 0.37 0.31 0.27 0.25 0.23 0.30 0.42 0.49 0.58 0.65 0.70 0.88 1.16 1.36 1.52 1.73 1.83 1.83 1.80 1.90 1.90 1.70 1.51 1.47 1.49 1.36 1.31 1.34 1.46 1.67 1.60 1.61 1.62 1.75 1.75 1.70 1.78 1.83
0.03 0.04 0.10 0.19 0.33 0.51 0.58 1.19 1.04 0.49 0.34 0.29 0.25 0.25 0.22 0.21 0.25 0.39 0.49 0.52 0.52 0.54 0.71 0.88 1.05 1.26 1.50 1.65 1.71 1.69 1.64 1.52 1.49 1.60 1.49 1.45 1.44 1.39 1.32 1.44 1.49 1.53 1.60 1.61 1.94 1.74 1.62 1.68 1.65
0.03 0.04 0.06 0.08 0.12 0.34 0.67 0.85 0.58 0.31 0.29 0.31 0.28 0.28 0.26 0.29 0.36 0.41 0.52 0.54 0.44 0.46 0.56 0.64 0.84 1.03 1.17 1.38 1.50 1.44 1.48 1.39 1.39 1.46 1.43 1.38 1.49 1.49 1.43 1.37 1.38 1.47 1.61 1.75 1.88 1.76 1.75 1.79 1.60
0.03 0.03 0.04 0.04 0.08 0.24 0.51 0.75 0.78 0.51 0.39 0.34 0.34 0.35 0.34 0.37 0.48 0.51 0.50 0.53 0.46 0.45 0.55 0.64 0.80 0.91 0.98 1.15 1.23 1.16 1.36 1.41 1.52 1.49 1.40 1.34 1.34 1.38 1.44 1.44 1.41 1.49 1.58 1.73 1.86 1.86 1.95 1.99 1.81
0.05 0.04 0.03 0.04 0.05 0.12 0.36 0.54 0.58 0.54 0.49 0.37 0.33 0.39 0.46 0.45 0.55 0.54 0.50 0.53 0.50 0.50 0.56 0.62 0.78 0.88 0.93 1.07 1.12 1.18 1.26 1.33 1.40 1.43 1.43 1.42 1.39 1.40 1.43 1.47 1.51 1.51 1.55 1.71 1.81 1.72 1.92 2.03 2.07
0.07 0.08 0.08 0.07 0.06 0.07 0.16 0.30 0.32 0.36 0.43 0.37 0.37 0.46 0.51 0.38 0.41 0.49 0.52 0.59 0.51 0.52 0.55 0.60 0.71 0.80 0.87 1.04 1.18 1.22 1.33 1.36 1.34 1.36 1.56 1.59 1.56 1.53 1.52 1.55 1.64 1.62 1.64 1.74 1.70 1.59 1.68 1.87 2.06